TimeCST,TemperatureF,Dew PointF,Humidity,Sea Level PressureIn,VisibilityMPH,Wind Direction,Wind SpeedMPH,Gust SpeedMPH,PrecipitationIn,Events,Conditions,WindDirDegrees,DateUTC
12:15 AM,53.6,46.4,77,30.05,10.0,North,5.8,-,N/A,,Mostly Cloudy,350,2012-11-12 06:15:00
12:35 AM,53.6,46.4,77,30.10,10.0,WNW,8.1,-,N/A,,Mostly Cloudy,290,2012-11-12 06:35:00
12:55 AM,53.6,46.4,77,30.06,10.0,NNW,9.2,-,0.31,,Overcast,340,2012-11-12 06:55:00
1:16 AM,51.8,44.6,76,30.13,10.0,WNW,6.9,-,0.04,,Mostly Cloudy,290,2012-11-12 07:16:00
1:35 AM,51.8,44.6,76,30.08,10.0,North,9.2,-,0.11,,Overcast,350,2012-11-12 07:35:00
1:55 AM,51.8,44.6,76,30.11,10.0,WNW,4.6,-,0.17,,Overcast,300,2012-11-12 07:55:00
2:35 AM,51.8,44.6,76,30.11,10.0,NNW,4.6,-,0.11,,Mostly Cloudy,340,2012-11-12 08:35:00
2:55 AM,51.8,44.6,76,30.15,10.0,West,4.6,-,0.15,,Mostly Cloudy,260,2012-11-12 08:55:00
3:15 AM,51.8,44.6,76,30.13,10.0,Calm,Calm,-,0.08,,Overcast,0,2012-11-12 09:15:00
3:35 AM,51.8,44.6,76,30.13,10.0,WNW,5.8,-,0.10,,Overcast,290,2012-11-12 09:35:00
3:55 AM,51.8,44.6,76,30.14,10.0,West,4.6,-,0.10,,Overcast,270,2012-11-12 09:55:00
4:35 AM,46.4,39.2,76,30.19,7.0,NNW,9.2,-,0.01,,Overcast,330,2012-11-12 10:35:00
4:55 AM,46.4,37.4,71,30.19,9.0,NNW,9.2,-,0.03,,Overcast,340,2012-11-12 10:55:00
5:15 AM,44.6,37.4,76,30.21,10.0,NW,12.7,18.4,N/A,,Overcast,320,2012-11-12 11:15:00
5:36 AM,44.6,35.6,71,30.23,5.0,NW,12.7,21.9,0.01,,Overcast,320,2012-11-12 11:36:00
6:15 AM,42.8,33.8,70,30.26,7.0,NW,9.2,-,N/A,,Overcast,310,2012-11-12 12:15:00
6:55 AM,41.0,30.2,65,30.30,10.0,NW,10.4,18.4,N/A,,Overcast,310,2012-11-12 12:55:00
7:15 AM,39.2,30.2,70,30.31,10.0,NW,13.8,21.9,N/A,,Overcast,320,2012-11-12 13:15:00
7:36 AM,39.2,30.2,70,30.33,10.0,NW,10.4,18.4,N/A,,Overcast,320,2012-11-12 13:36:00
7:55 AM,39.2,28.4,65,30.33,10.0,NW,12.7,20.7,N/A,,Overcast,310,2012-11-12 13:55:00
8:15 AM,39.2,28.4,65,30.35,10.0,NW,15.0,19.6,N/A,,Overcast,320,2012-11-12 14:15:00
8:55 AM,39.2,28.4,65,30.38,10.0,NW,10.4,16.1,N/A,,Overcast,320,2012-11-12 14:55:00
9:15 AM,39.2,28.4,65,30.39,10.0,NW,13.8,18.4,N/A,,Mostly Cloudy,320,2012-11-12 15:15:00
9:35 AM,41.0,26.6,57,30.41,10.0,NNW,12.7,-,N/A,,Scattered Clouds,340,2012-11-12 15:35:00
9:56 AM,41.0,26.6,57,30.41,10.0,NNW,16.1,20.7,N/A,,Partly Cloudy,330,2012-11-12 15:56:00
10:35 AM,42.8,26.6,53,30.43,10.0,NNW,9.2,20.7,N/A,,Clear,340,2012-11-12 16:35:00
11:15 AM,42.8,26.6,53,30.43,10.0,NNW,11.5,-,N/A,,Clear,330,2012-11-12 17:15:00
11:35 AM,42.8,24.8,49,30.43,10.0,NW,11.5,-,N/A,,Clear,320,2012-11-12 17:35:00
11:55 AM,44.6,26.6,49,30.43,10.0,NNW,9.2,16.1,N/A,,Clear,330,2012-11-12 17:55:00
12:15 PM,44.6,24.8,46,30.43,10.0,North,11.5,17.3,N/A,,Clear,350,2012-11-12 18:15:00
12:35 PM,44.6,24.8,46,30.42,10.0,NNW,11.5,-,N/A,,Clear,330,2012-11-12 18:35:00
1:15 PM,44.6,24.8,46,30.40,10.0,WNW,8.1,-,N/A,,Clear,300,2012-11-12 19:15:00
1:35 PM,44.6,24.8,46,30.39,10.0,NNW,5.8,-,N/A,,Clear,340,2012-11-12 19:35:00
1:55 PM,46.4,24.8,43,30.40,10.0,North,4.6,-,N/A,,Clear,360,2012-11-12 19:55:00
2:15 PM,46.4,24.8,43,30.39,10.0,North,5.8,-,N/A,,Clear,360,2012-11-12 20:15:00
2:35 PM,46.4,23.0,40,30.40,10.0,NNW,6.9,-,N/A,,Clear,340,2012-11-12 20:35:00
2:55 PM,46.4,24.8,43,30.40,10.0,NW,8.1,-,N/A,,Clear,320,2012-11-12 20:55:00
3:35 PM,46.4,24.8,43,30.41,10.0,WNW,8.1,-,N/A,,Clear,290,2012-11-12 21:35:00
3:55 PM,46.4,21.2,37,30.42,10.0,WNW,6.9,-,N/A,,Clear,290,2012-11-12 21:55:00
4:35 PM,44.6,23.0,43,30.43,10.0,WNW,4.6,-,N/A,,Clear,290,2012-11-12 22:35:00
4:55 PM,44.6,23.0,43,30.44,10.0,West,3.5,-,N/A,,Clear,270,2012-11-12 22:55:00
5:15 PM,42.8,24.8,49,30.44,10.0,Calm,Calm,-,N/A,,Clear,0,2012-11-12 23:15:00
5:35 PM,41.0,24.8,53,30.44,10.0,Calm,Calm,-,N/A,,Clear,0,2012-11-12 23:35:00
5:55 PM,39.2,24.8,56,30.45,10.0,Calm,Calm,-,N/A,,Clear,0,2012-11-12 23:55:00
6:36 PM,37.4,24.8,60,30.45,10.0,Calm,Calm,-,N/A,,Clear,0,2012-11-13 00:36:00
6:55 PM,37.4,24.8,60,30.45,10.0,South,3.5,-,N/A,,Clear,190,2012-11-13 00:55:00
7:15 PM,37.4,24.8,60,30.45,10.0,Calm,Calm,-,N/A,,Clear,0,2012-11-13 01:15:00
7:35 PM,37.4,24.8,60,30.46,10.0,Calm,Calm,-,N/A,,Clear,0,2012-11-13 01:35:00
7:55 PM,35.6,24.8,65,30.46,10.0,Calm,Calm,-,N/A,,Clear,0,2012-11-13 01:55:00
8:16 PM,35.6,24.8,65,30.46,10.0,Calm,Calm,-,N/A,,Clear,0,2012-11-13 02:16:00
8:35 PM,37.4,24.8,60,30.47,10.0,Calm,Calm,-,N/A,,Clear,0,2012-11-13 02:35:00
8:55 PM,35.6,23.0,60,30.47,10.0,Calm,Calm,-,N/A,,Clear,0,2012-11-13 02:55:00
9:35 PM,35.6,24.8,65,30.48,10.0,Calm,Calm,-,N/A,,Clear,0,2012-11-13 03:35:00
9:55 PM,33.8,24.8,70,30.48,10.0,Calm,Calm,-,N/A,,Clear,0,2012-11-13 03:55:00
10:15 PM,33.8,24.8,70,30.48,10.0,Calm,Calm,-,N/A,,Clear,0,2012-11-13 04:15:00
10:35 PM,33.8,24.8,70,30.49,10.0,Calm,Calm,-,N/A,,Clear,0,2012-11-13 04:35:00
10:55 PM,33.8,24.8,70,30.48,10.0,Calm,Calm,-,N/A,,Clear,0,2012-11-13 04:55:00
11:15 PM,33.8,24.8,70,30.48,10.0,Calm,Calm,-,N/A,,Clear,0,2012-11-13 05:15:00
11:55 PM,33.8,24.8,70,30.48,10.0,Calm,Calm,-,N/A,,Clear,0,2012-11-13 05:55:00